Location: *
(43.0409°N, 0.1694°E)
Time: 17:24:35
(UTC+00:00)

FENGYUN 1C DEB - Pass Details

Date: 24 June 2024
Orbit: 854 x 916 km, 98.8° (Epoch: 11 July)

Event Time Altitude Azimuth Distance (km) Brightness Sun altitude
Rises 20:53:01 0° 221° (SW) 3,510 ? -10.6°
Reaches altitude 10° 20:57:10 10° 250° (WSW) 2,588 ? -11.1°
Maximum altitude 20:59:24 12° 273° (W) 2,436 ? -11.4°
Drops below altitude 10° 21:01:39 10° 296° (WNW) 2,606 ? -11.7°
Sets 21:05:53 0° 326° (NW) 3,561 ? -12.2°
